Weather reports worldwide

Advertisment
Dax, France (7603): temperature & dewpoint: 06.12.2018 00:00:00 - 12.12.2018 00:00:00 (CET)Dax, France (7603): temperature 5cm: 06.12.2018 00:00:00 - 12.12.2018 00:00:00 (CET)Dax, France (7603): temperature -20cm & temperature -100cm: 06.12.2018 00:00:00 - 12.12.2018 00:00:00 (CET)Dax, France (7603): wind speed & gusts: 06.12.2018 00:00:00 - 12.12.2018 00:00:00 (CET)Dax, France (7603): wind direction: 06.12.2018 00:00:00 - 12.12.2018 00:00:00 (CET)Dax, France (7603): reduced air pressure: 06.12.2018 00:00:00 - 12.12.2018 00:00:00 (CET)Dax, France (7603): visibility: 06.12.2018 00:00:00 - 12.12.2018 00:00:00 (CET)Dax, France (7603): sunshine duration: 06.12.2018 00:00:00 - 12.12.2018 00:00:00 (CET)Dax, France (7603): precipitation: 06.12.2018 00:00:00 - 12.12.2018 00:00:00 (CET)
Date & Time tt [°C] td [°C] tt 5cm [°C] tt -20cm [°C] tt -100cm [°C] ff [km/h] ff [kn] fx [km/h] fx [kn] dd ppp [hPa] vv [km] sd [min] rr [mm]
12.12.2018 00:00:00 2,7 1,7 1,3 11,4 14,0 0 0 6 3 N 1021,7 4,5 0 0,0
11.12.2018 23:00:00 4,2 3,2 2,9 11,5 14,0 0 0 4 2 N 1021,6 3,2 0 0,0
11.12.2018 22:00:00 5,1 3,8 3,3 11,6 14,0 2 1 5 3 N 1021,0 5 0 0,0
11.12.2018 21:00:00 6,4 3,9 4,9 11,7 14,0 2 1 8 4 NNE 1020,9 7 0 0,0
11.12.2018 20:00:00 7,4 4,2 5,9 11,7 14,0 2 1 14 7 NE 1020,8 3,9 0 0,0
11.12.2018 19:00:00 8,8 4,2 7,1 11,7 14,0 10 5 16 9 ENE 1020,3 12 0 0,0
11.12.2018 18:00:00 10,3 4,4 7,6 11,7 14,0 8 5 12 7 ENE 1020,5 14 0 0,0
11.12.2018 17:00:00 10,8 4,5 9,8 11,7 14,0 7 4 19 10 E 1020,6 16 28 0,0
11.12.2018 16:00:00 11,6 5,0 11,8 11,6 14,0 13 7 22 12 E 1020,3 12 30 0,0
11.12.2018 15:00:00 12,3 4,8 13,4 11,5 14,0 12 6 26 14 E 1020,6 17 45 0,0
11.12.2018 14:00:00 12,2 5,8 12,5 11,5 14,0 15 8 28 15 E 1021,2 12 60 0,0
11.12.2018 13:00:00 10,9 5,4 10,6 11,5 14,1 19 10 26 14 E 1022,1 10 40 0,0
11.12.2018 12:00:00 9,5 6,6 9,2 11,5 14,0 12 6 - - E 1023,3 7 53 0,0
11.12.2018 11:00:00 6,4 6,3 4,9 11,6 14,1 - - - - - 1024,1 6 51 0,0
11.12.2018 10:00:00 3,9 3,8 3,1 11,7 14,0 - - - - - 1023,7 1,8 38 0,0
11.12.2018 09:00:00 2,9 2,8 2,1 11,8 14,1 - - - - - 1023,5 0,5 6 0,0
11.12.2018 08:00:00 2,6 2,5 1,4 11,9 14,1 - - - - - 1023,8 0,2 0 0,0
11.12.2018 07:00:00 2,5 2,4 1,6 11,9 14,1 - - - - - 1024,0 0,1 0 0,0
11.12.2018 06:00:00 3,3 3,2 2,6 12,0 14,1 - - - - - 1025,0 0,1 0 0,0
11.12.2018 05:00:00 3,3 3,2 2,7 12,1 14,1 - - - - - 1026,0 0,1 0 0,0
11.12.2018 04:00:00 3,4 3,1 2,9 12,2 14,0 - - - - - 1026,8 0,1 0 0,0
11.12.2018 03:00:00 4,1 3,8 3,1 12,3 14,1 - - - - - 1027,3 0,7 0 0,0
11.12.2018 02:00:00 5,3 4,9 3,6 12,4 14,0 - - - - - 1027,5 0,6 0 0,0
11.12.2018 01:00:00 6,3 5,9 4,6 12,5 14,1 - - - - - 1028,1 3,1 0 0,0
11.12.2018 00:00:00 7,1 6,4 6,2 12,6 14,1 - - - - - 1028,6 4,9 0 0,0
10.12.2018 23:00:00 7,7 6,8 5,8 12,6 14,1 - - - - - 1029,0 4,5 0 0,0
10.12.2018 22:00:00 8,6 7,1 6,9 12,7 14,1 - - - - - 1029,5 6 0 0,0
10.12.2018 21:00:00 9,3 7,2 7,9 12,7 14,1 - - - - - 1030,0 7 0 0,0
10.12.2018 20:00:00 10,6 7,1 9,5 12,7 14,1 - - - - - 1030,4 9 0 0,0
10.12.2018 19:00:00 12,0 7,7 11,5 12,6 14,1 - - - - - 1030,8 8 0 0,0
10.12.2018 18:00:00 12,4 7,7 12,0 12,6 14,1 - - - - - 1030,6 8 0 0,0
10.12.2018 17:00:00 12,6 7,7 12,5 12,5 14,1 - - - - - 1030,7 9 0 0,0
10.12.2018 16:00:00 13,8 5,9 15,7 12,4 14,1 - - - - - 1030,9 10 31 0,0
10.12.2018 15:00:00 14,0 7,1 15,7 12,3 14,1 - - - - - 1031,2 10 39 0,0
10.12.2018 14:00:00 14,1 6,7 14,8 12,2 14,1 - - - - - 1032,0 8 18 0,0
10.12.2018 13:00:00 14,5 9,1 15,3 12,2 14,1 - - - - - 1032,7 8 31 0,0
10.12.2018 12:00:00 13,5 9,7 13,5 12,2 14,1 - - - - - 1033,5 7 55 0,0
10.12.2018 11:00:00 11,0 9,3 9,7 12,2 14,1 - - - - - 1034,0 6 9 0,0
10.12.2018 10:00:00 9,4 8,9 8,2 12,3 14,1 - - - - - 1034,2 6 0 0,0
10.12.2018 09:00:00 8,7 8,1 7,7 12,3 14,1 - - - - - 1033,9 4,5 4 0,0
10.12.2018 08:00:00 8,7 8,1 7,8 12,3 14,1 - - - - - 1033,6 3,9 0 0,0
10.12.2018 07:00:00 8,8 8,2 7,5 12,4 14,1 - - - - - 1033,5 4,0 0 0,0
10.12.2018 06:00:00 9,1 8,0 7,6 12,4 14,1 - - - - - 1033,4 5 0 0,0
10.12.2018 05:00:00 9,9 8,8 9,3 12,4 14,1 - - - - - 1033,4 3,4 0 0,2
10.12.2018 04:00:00 9,8 8,4 9,2 12,4 14,1 - - - - - 1033,8 6 0 0,0
10.12.2018 03:00:00 10,3 8,6 9,3 12,4 14,1 - - - - - 1034,1 6 0 0,0
10.12.2018 02:00:00 10,2 8,6 9,2 12,5 14,1 - - - - - 1034,1 6 0 0,0
10.12.2018 01:00:00 10,0 8,1 9,3 12,5 14,1 - - - - - 1034,2 3,7 0 0,0
10.12.2018 00:00:00 10,9 8,3 9,7 12,6 14,1 - - - - - 1034,1 4,5 0 0,0
09.12.2018 23:00:00 11,5 8,0 9,0 12,6 14,1 - - - - - 1033,9 4,9 0 0,0
09.12.2018 22:00:00 10,6 7,8 9,1 12,6 14,1 - - - - - 1033,8 4,6 0 0,0
09.12.2018 21:00:00 10,8 7,7 9,4 12,6 14,1 - - - - - 1033,4 4,9 0 0,0
09.12.2018 20:00:00 12,5 8,4 11,3 12,7 14,1 - - - - - 1033,0 4,6 0 0,0
09.12.2018 19:00:00 12,3 8,0 11,8 12,7 14,1 - - - - - 1032,1 4,9 0 0,0
09.12.2018 18:00:00 12,5 9,3 12,1 12,6 14,1 - - - - - 1031,5 4,0 0 0,0
09.12.2018 17:00:00 12,6 9,1 11,3 12,6 14,1 - - - - - 1031,0 4,5 1 0,0
09.12.2018 16:00:00 12,7 9,0 11,0 12,6 14,1 - - - - - 1030,4 4,8 0 0,4
09.12.2018 15:00:00 14,2 9,6 14,2 12,5 14,1 - - - - - 1029,8 4,7 0 0,0
09.12.2018 14:00:00 14,3 9,1 14,4 12,5 14,1 - - - - - 1029,9 4,6 0 0,0
09.12.2018 13:00:00 14,2 8,8 14,2 12,5 14,1 - - - - - 1029,9 5 0 0,0
09.12.2018 12:00:00 14,2 9,8 12,8 12,5 14,1 - - - - - 1030,2 4,3 0 0,0
09.12.2018 11:00:00 14,5 8,2 13,8 12,5 14,1 - - - - - 1029,8 5 0 0,0
09.12.2018 10:00:00 14,0 8,4 12,6 12,4 14,1 - - - - - 1029,6 5 0 0,0
09.12.2018 09:00:00 13,9 10,1 13,2 12,4 14,1 - - - - - 1029,0 4,8 0 0,0
09.12.2018 08:00:00 13,7 9,5 13,4 12,4 14,1 - - - - - 1028,6 6 0 0,0
09.12.2018 07:00:00 13,9 9,5 13,3 12,4 14,1 - - - - - 1028,3 7 0 0,0
09.12.2018 06:00:00 13,7 11,0 12,6 12,4 14,1 - - - - - 1028,0 7 0 0,0
09.12.2018 05:00:00 13,7 10,9 12,7 12,4 14,1 - - - - - 1027,9 8 0 0,0
09.12.2018 04:00:00 13,4 12,5 12,6 12,3 14,1 - - - - - 1027,9 6 0 0,0
09.12.2018 03:00:00 12,8 12,2 11,8 12,3 14,1 - - - - - 1027,7 10 0 0,6
09.12.2018 02:00:00 12,3 11,7 11,8 12,3 14,1 - - - - - 1027,4 1,0 0 0,2
09.12.2018 01:00:00 13,0 10,9 11,9 12,3 14,1 - - - - - 1027,8 2,1 0 0,0
09.12.2018 00:00:00 13,5 10,3 12,5 12,3 14,1 - - - - - 1027,7 10 0 0,0
08.12.2018 23:00:00 13,4 9,6 11,9 12,4 14,1 - - - - - 1027,6 10 0 0,0
08.12.2018 22:00:00 12,1 7,4 9,8 12,4 14,1 - - - - - 1027,1 9 0 0,0
08.12.2018 21:00:00 10,2 7,1 9,2 12,4 14,1 - - - - - 1027,0 8 0 0,0
08.12.2018 20:00:00 9,8 6,9 7,8 12,5 14,1 - - - - - 1027,0 9 0 0,0
08.12.2018 19:00:00 9,0 6,6 7,7 12,5 14,1 - - - - - 1027,0 6 0 0,0
08.12.2018 18:00:00 10,9 6,6 9,5 12,4 14,1 - - 16 8 - 1027,3 10 1 0,0
08.12.2018 17:00:00 13,1 7,3 12,8 12,4 14,1 9 5 26 14 WSW 1027,6 11 32 0,0
08.12.2018 16:00:00 13,4 7,8 13,6 12,3 14,1 18 10 31 17 WSW 1027,8 10 22 0,0
08.12.2018 15:00:00 13,4 8,9 13,6 12,2 14,1 17 9 39 21 WSW 1028,2 8 22 0,0
08.12.2018 14:00:00 13,7 10,3 12,3 12,2 14,1 16 9 - - SW 1028,9 7 15 0,0
08.12.2018 13:00:00 12,2 10,8 11,5 12,2 14,1 - - - - - 1029,5 5 0 0,0
08.12.2018 12:00:00 11,7 10,4 10,9 12,2 14,1 - - - - - 1030,1 5 0 0,2
08.12.2018 11:00:00 11,1 9,7 10,3 12,2 14,1 - - - - - 1030,1 6 0 0,2
08.12.2018 10:00:00 9,8 8,9 8,8 12,3 14,1 - - - - - 1029,6 7 21 0,0
08.12.2018 09:00:00 8,6 8,2 6,4 12,3 14,1 - - - - - 1029,3 7 10 0,0
08.12.2018 08:00:00 8,3 7,4 6,7 12,4 14,1 - - - - - 1029,4 6 0 0,0
08.12.2018 07:00:00 9,2 8,1 6,8 12,5 14,1 - - - - - 1029,0 7 0 0,0
08.12.2018 06:00:00 8,0 7,4 6,0 12,6 14,1 - - - - - 1028,4 5 0 0,0
08.12.2018 05:00:00 7,7 6,8 6,4 12,6 14,1 - - - - - 1028,3 5 0 0,0
08.12.2018 04:00:00 8,6 7,5 7,2 12,7 14,1 - - - - - 1028,4 7 0 0,0
08.12.2018 03:00:00 9,0 7,6 7,1 12,8 14,1 - - - - - 1028,2 7 0 0,0
08.12.2018 02:00:00 8,4 7,0 6,0 12,9 14,1 - - - - - 1027,9 6 0 0,0
08.12.2018 01:00:00 8,1 6,7 6,5 12,9 14,1 - - - - - 1028,2 4,8 0 0,0
08.12.2018 00:00:00 10,2 7,3 8,5 13,0 14,1 - - - - - 1028,3 7 0 0,0
07.12.2018 23:00:00 10,8 7,8 9,2 13,0 14,1 - - - - - 1028,1 7 0 0,0
07.12.2018 22:00:00 10,9 8,5 9,4 13,0 14,1 9 5 25 14 WSW 1028,2 7 0 0,0
07.12.2018 21:00:00 11,4 9,8 10,5 13,0 14,1 8 5 25 13 WNW 1027,9 5 0 0,4
07.12.2018 20:00:00 11,8 9,9 10,8 13,0 14,1 13 7 53 29 W 1026,8 7 0 0,4
07.12.2018 19:00:00 11,9 10,8 11,2 13,0 14,1 14 7 31 17 WSW 1026,0 2,2 0 0,6
07.12.2018 18:00:00 12,7 11,3 11,9 12,9 14,1 11 6 32 18 WSW 1025,1 8 0 0,2
07.12.2018 17:00:00 12,7 11,8 12,0 12,9 14,1 18 10 46 25 W 1024,8 1,0 0 0,8
07.12.2018 16:00:00 14,7 9,5 13,8 12,8 14,1 16 9 53 29 W 1023,4 34 0 0,0
07.12.2018 15:00:00 15,9 5,8 15,9 12,7 14,1 13 7 32 18 WSW 1023,0 20 0 0,0
07.12.2018 14:00:00 16,7 7,3 16,8 12,7 14,1 15 8 23 12 WSW 1022,9 20 52 0,0
07.12.2018 13:00:00 16,2 7,4 16,6 12,6 14,1 13 7 18 10 SSW 1023,4 30 60 0,0
07.12.2018 12:00:00 13,5 7,3 12,4 12,7 14,1 11 6 - - S 1024,3 30 45 0,0
07.12.2018 11:00:00 10,8 7,1 - - - - - - - - 1025,7 30 - 0,0
07.12.2018 10:00:00 9,4 7,2 8,6 12,8 14,1 - - - - - 1025,9 30 28 0,0
07.12.2018 09:00:00 8,3 6,9 6,8 12,8 14,1 - - - - - 1025,8 12 11 0,0
07.12.2018 08:00:00 8,8 7,2 7,6 12,8 14,1 9 5 - - S 1025,6 30 0 0,0
07.12.2018 07:00:00 10,2 8,5 9,4 12,9 14,1 5 3 - - S 1025,4 8 0 0,0
07.12.2018 06:00:00 10,5 9,4 9,8 12,9 14,0 - - - - - 1025,6 11 0 0,0
07.12.2018 05:00:00 11,1 9,5 10,7 12,9 14,0 - - - - - 1026,0 12 0 0,0
07.12.2018 04:00:00 11,3 9,7 10,8 12,9 14,1 - - - - - 1026,6 14 0 0,0
07.12.2018 03:00:00 11,2 9,9 10,6 12,9 14,0 - - - - - 1027,0 11 0 0,0
07.12.2018 02:00:00 11,7 9,9 11,0 13,0 14,1 - - - - - 1027,5 12 0 0,0
07.12.2018 01:00:00 11,6 10,2 11,1 13,0 14,1 - - - - - 1028,2 10 0 0,0
07.12.2018 00:00:00 11,5 10,6 11,0 13,0 14,1 - - - - - 1028,8 8 0 0,0
06.12.2018 23:00:00 11,5 10,6 11,0 13,1 14,1 - - - - - 1029,0 6 0 0,0
06.12.2018 22:00:00 11,3 10,7 10,9 13,1 14,0 - - - - - 1029,5 5 0 0,0
06.12.2018 21:00:00 11,5 10,9 9,9 13,1 14,1 - - - - - 1029,8 7 0 0,0
06.12.2018 20:00:00 11,0 10,5 9,4 13,2 14,1 - - - - - 1029,9 4,6 0 0,0
06.12.2018 19:00:00 12,0 11,0 - - - - - - - - - 9 - -
06.12.2018 18:00:00 12,5 11,2 11,4 13,1 14,0 - - - - - 1029,6 11 0 0,0
06.12.2018 17:00:00 13,4 11,3 12,6 13,1 14,0 13 7 22 12 WSW 1029,4 8 0 0,0
06.12.2018 16:00:00 14,1 12,5 13,0 13,0 14,0 5 3 25 13 W 1029,3 7 0 0,2
06.12.2018 15:00:00 13,9 12,3 13,0 12,9 14,0 16 9 29 16 W 1029,3 6 0 0,0
06.12.2018 14:00:00 14,4 12,9 13,0 12,9 14,0 8 4 26 14 W 1029,3 6 0 0,4
06.12.2018 13:00:00 13,8 12,5 13,2 12,8 14,0 12 7 29 16 WSW 1029,7 4,5 0 0,4
06.12.2018 12:00:00 15,2 12,1 15,4 12,8 14,0 12 7 24 13 WSW 1029,8 9 0 0,0
06.12.2018 11:00:00 15,2 12,0 14,9 12,8 14,0 12 7 22 12 WSW 1029,8 7 0 0,0
06.12.2018 10:00:00 15,2 12,1 13,9 12,8 14,0 14 7 24 13 SW 1029,4 6 11 0,0
06.12.2018 09:00:00 13,9 11,8 12,7 12,8 14,0 11 6 21 11 WSW 1029,1 7 0 0,0
06.12.2018 08:00:00 13,6 11,8 12,9 12,8 14,0 10 5 19 10 WSW 1028,2 7 0 0,0
06.12.2018 07:00:00 14,2 11,9 13,6 12,8 14,0 10 6 21 12 W 1027,8 7 0 0,0
06.12.2018 06:00:00 14,4 11,5 14,0 12,7 14,0 10 5 22 12 WSW 1027,5 9 0 0,0
06.12.2018 05:00:00 14,5 11,5 13,8 12,8 14,0 11 6 21 11 W 1027,0 10 0 0,0
06.12.2018 04:00:00 14,4 11,7 12,6 12,7 14,0 9 5 18 10 W 1026,7 11 0 0,0
06.12.2018 03:00:00 13,2 11,6 12,3 12,8 14,0 4 2 11 6 W 1026,8 12 0 0,0
06.12.2018 02:00:00 13,4 10,7 11,2 12,8 14,0 8 4 14 8 W 1026,3 16 0 0,0
06.12.2018 01:00:00 12,0 10,4 10,8 12,8 14,0 4 2 9 5 W 1026,0 8 0 0,0
06.12.2018 00:00:00 12,8 10,3 12,0 12,8 13,9 4 2 9 5 SSE 1025,9 13 0 0,0

tt = temperature
td = dewpoint
tt 5cm = temperature 5cm
tt -20cm = temperature -20cm
tt -100cm = temperature -100cm
ff = wind speed
fx = gusts
dd = wind direction
ppp = reduced air pressure
vv = visibility
sd = sunshine duration
rr = precipitation

Next stations